Powrót do katalogu

SL-12 R/B(2)

AktywnyHEO
NORAD 24919·ROCKET BODY·🇷🇺 Russia

Wystrzelony Aug 28, 1997 z Baikonur Cosmodrome

Loading…

Następne Przeloty (najbliższe 24 godziny)

TLE

ŚwieżeSource: Space-Track

Epoka: Sep 14, 2026, 18:59 UTC

1 24919U 97046D   26257.79130767 -.00000119  00000-0  00000-0 0  9995
2 24919  13.2321 109.1843 4785298  25.7271 120.7864  1.79817625190758

Śledź SL-12 R/B(2) w czasie rzeczywistym z AllMySat

Download on the App Store